START_TIME,STEP,MOV.,M35,t_acc.,PL05,t_acc.,PL06,t_acc.,PL07,t_acc.
1979-07-19 15:00:23.740 ,1,0,0.,4.8,7.,4.8,4.,4.8,4.,4.8
1979-07-19 15:00:28.540 ,1,0,0.,4.8,4.,4.8,7.,4.8,2.,4.8
1979-07-19 15:00:33.340 ,1,0,0.,4.8,8.,4.8,3.,4.8,4.,4.8
1979-07-19 15:00:38.140 ,1,0,0.,4.8,4.,4.8,1.,4.8,1.,4.8
1979-07-19 15:00:42.940 ,1,0,0.,4.8,5.,4.8,4.,4.8,1.,4.8
1979-07-19 15:00:47.740 ,2,0,0.,4.8,2.,4.8,5.,4.8,1.,4.8
1979-07-19 15:00:52.540 ,2,0,0.,4.8,5.,4.8,3.,4.8,3.,4.8
1979-07-19 15:00:57.340 ,2,0,0.,4.8,3.,4.8,3.,4.8,3.,4.8
1979-07-19 15:01:02.140 ,2,0,0.,4.8,6.,4.8,4.,4.8,1.,4.8
1979-07-19 15:01:06.940 ,2,0,0.,4.8,9.,4.8,2.,4.8,4.,4.8
1979-07-19 15:01:11.740 ,2,0,0.,4.8,5.,4.8,1.,4.8,0.,4.8
1979-07-19 15:01:16.540 ,2,0,0.,4.8,8.,4.8,3.,4.8,0.,4.8
1979-07-19 15:01:21.340 ,2,0,0.,4.8,5.,4.8,3.,4.8,2.,4.8
1979-07-19 15:01:26.140 ,2,0,0.,4.8,6.,4.8,2.,4.8,1.,4.8
1979-07-19 15:01:30.940 ,2,0,0.,4.8,4.,4.8,1.,4.8,3.,4.8
1979-07-19 15:01:35.740 ,3,0,0.,4.8,3.,4.8,2.,4.8,2.,4.8
1979-07-19 15:01:40.540 ,3,0,0.,4.8,4.,4.8,2.,4.8,2.,4.8
1979-07-19 15:01:45.340 ,3,0,0.,4.8,4.,4.8,1.,4.8,2.,4.8
1979-07-19 15:01:50.140 ,3,0,0.,4.8,3.,4.8,5.,4.8,0.,4.8
1979-07-19 15:01:54.940 ,3,0,0.,4.8,3.,4.8,4.,4.8,4.,4.8
1979-07-19 15:01:59.740 ,3,0,0.,4.8,2.,4.8,3.,4.8,0.,4.8
1979-07-19 15:02:04.540 ,3,0,0.,4.8,2.,4.8,4.,4.8,0.,4.8
1979-07-19 15:02:09.340 ,3,0,0.,4.8,3.,4.8,3.,4.8,5.,4.8
1979-07-19 15:02:14.140 ,3,0,0.,4.8,8.,4.8,1.,4.8,2.,4.8
1979-07-19 15:02:18.940 ,3,0,0.,4.8,5.,4.8,2.,4.8,1.,4.8
1979-07-19 15:02:23.740 ,4,0,0.,4.8,9.,4.8,2.,4.8,1.,4.8
1979-07-19 15:02:28.540 ,4,0,0.,4.8,4.,4.8,2.,4.8,2.,4.8
1979-07-19 15:02:33.340 ,4,0,0.,4.8,5.,4.8,1.,4.8,2.,4.8
1979-07-19 15:02:38.140 ,4,0,0.,4.8,2.,4.8,1.,4.8,2.,4.8
1979-07-19 15:02:42.940 ,4,0,0.,4.8,3.,4.8,3.,4.8,1.,4.8
1979-07-19 15:02:47.740 ,4,0,0.,4.8,7.,4.8,4.,4.8,1.,4.8
1979-07-19 15:02:52.540 ,4,0,0.,4.8,3.,4.8,1.,4.8,3.,4.8
1979-07-19 15:02:57.340 ,4,0,0.,4.8,5.,4.8,1.,4.8,2.,4.8
1979-07-19 15:03:02.140 ,4,0,0.,4.8,2.,4.8,0.,4.8,3.,4.8
1979-07-19 15:03:06.940 ,4,0,0.,4.8,4.,4.8,1.,4.8,1.,4.8
1979-07-19 15:03:11.740 ,5,0,0.,4.8,3.,4.8,1.,4.8,0.,4.8
1979-07-19 15:03:16.540 ,5,0,0.,4.8,2.,4.8,2.,4.8,5.,4.8
1979-07-19 15:03:21.340 ,5,0,0.,4.8,3.,4.8,0.,4.8,3.,4.8
1979-07-19 15:03:26.140 ,5,0,0.,4.8,3.,4.8,2.,4.8,2.,4.8
1979-07-19 15:03:30.940 ,5,0,0.,4.8,3.,4.8,4.,4.8,2.,4.8
1979-07-19 15:03:35.740 ,5,0,0.,4.8,4.,4.8,3.,4.8,0.,4.8
1979-07-19 15:03:40.540 ,5,0,0.,4.8,3.,4.8,0.,4.8,4.,4.8
1979-07-19 15:03:45.340 ,5,0,0.,4.8,2.,4.8,2.,4.8,1.,4.8
1979-07-19 15:03:50.140 ,5,0,0.,4.8,4.,4.8,4.,4.8,4.,4.8
1979-07-19 15:03:54.940 ,5,0,0.,4.8,5.,4.8,3.,4.8,0.,4.8
1979-07-19 15:03:59.740 ,6,0,0.,4.8,4.,4.8,3.,4.8,1.,4.8
1979-07-19 15:04:04.540 ,6,0,0.,4.8,9.,4.8,2.,4.8,3.,4.8
1979-07-19 15:04:09.340 ,6,0,0.,4.8,5.,4.8,5.,4.8,2.,4.8
1979-07-19 15:04:14.140 ,6,0,0.,4.8,1.,4.8,2.,4.8,2.,4.8
1979-07-19 15:04:18.940 ,6,0,0.,4.8,6.,4.8,1.,4.8,0.,4.8
1979-07-19 15:04:23.740 ,6,0,0.,4.8,2.,4.8,1.,4.8,2.,4.8
1979-07-19 15:04:28.540 ,6,0,0.,4.8,1.,4.8,2.,4.8,1.,4.8
1979-07-19 15:04:33.340 ,6,0,0.,4.8,6.,4.8,3.,4.8,1.,4.8
1979-07-19 15:04:38.140 ,6,0,0.,4.8,9.,4.8,1.,4.8,1.,4.8
1979-07-19 15:04:42.940 ,6,0,0.,4.8,7.,4.8,2.,4.8,2.,4.8
1979-07-19 15:04:47.740 ,7,0,0.,4.8,4.,4.8,3.,4.8,5.,4.8
1979-07-19 15:04:52.540 ,7,0,0.,4.8,6.,4.8,5.,4.8,6.,4.8
1979-07-19 15:04:57.340 ,7,0,0.,4.8,0.,4.8,0.,4.8,0.,4.8
1979-07-19 15:05:02.140 ,7,0,0.,4.8,0.,4.8,0.,4.8,0.,4.8
1979-07-19 15:05:06.940 ,7,0,0.,4.8,0.,4.8,0.,4.8,0.,4.8
1979-07-19 15:05:11.740 ,7,0,0.,4.8,0.,4.8,0.,4.8,0.,4.8
1979-07-19 15:05:16.540 ,7,0,0.,4.8,1.,4.8,0.,4.8,0.,4.8
1979-07-19 15:05:21.340 ,7,0,0.,4.8,0.,4.8,0.,4.8,0.,4.8
1979-07-19 15:05:26.140 ,7,0,0.,4.8,0.,4.8,0.,4.8,0.,4.8
1979-07-19 15:05:30.940 ,7,0,0.,4.8,1.,4.8,0.,4.8,0.,4.8
1979-07-19 15:05:35.740 ,7,0,0.,4.8,1.,4.8,0.,4.8,0.,4.8
1979-07-19 15:05:40.540 ,7,0,0.,4.8,1.,4.8,0.,4.8,0.,4.8
1979-07-19 15:05:45.340 ,7,0,0.,4.8,2.,4.8,0.,4.8,0.,4.8
1979-07-19 15:05:50.140 ,7,0,0.,4.8,0.,4.8,0.,4.8,0.,4.8
1979-07-19 15:05:54.940 ,7,0,0.,4.8,1.,4.8,0.,4.8,0.,4.8
1979-07-19 15:05:59.740 ,7,0,0.,4.8,1.,4.8,0.,4.8,0.,4.8
1979-07-19 15:06:04.540 ,7,0,0.,4.8,0.,4.8,0.,4.8,0.,4.8
1979-07-19 15:06:09.340 ,7,0,0.,4.8,0.,4.8,1.,4.8,0.,4.8
1979-07-19 15:06:14.140 ,7,0,0.,4.8,1.,4.8,0.,4.8,0.,4.8
1979-07-19 15:06:18.940 ,7,0,0.,4.8,1.,4.8,0.,4.8,0.,4.8
1979-07-19 15:06:23.740 ,6,0,0.,4.8,2.,4.8,0.,4.8,0.,4.8
1979-07-19 15:06:28.540 ,6,0,0.,4.8,0.,4.8,0.,4.8,0.,4.8
1979-07-19 15:06:33.340 ,6,0,0.,4.8,4.,4.8,2.,4.8,3.,4.8
1979-07-19 15:06:38.140 ,6,0,0.,4.8,8.,4.8,2.,4.8,3.,4.8
1979-07-19 15:06:42.940 ,6,0,0.,4.8,1.,4.8,2.,4.8,2.,4.8
1979-07-19 15:06:47.740 ,6,0,0.,4.8,3.,4.8,3.,4.8,4.,4.8
1979-07-19 15:06:52.540 ,6,0,0.,4.8,4.,4.8,4.,4.8,2.,4.8
1979-07-19 15:06:57.340 ,6,0,0.,4.8,2.,4.8,1.,4.8,1.,4.8
1979-07-19 15:07:02.140 ,6,0,0.,4.8,6.,4.8,1.,4.8,3.,4.8
1979-07-19 15:07:06.940 ,6,0,0.,4.8,7.,4.8,6.,4.8,4.,4.8
1979-07-19 15:07:11.740 ,5,0,0.,4.8,4.,4.8,3.,4.8,0.,4.8
1979-07-19 15:07:16.540 ,5,0,0.,4.8,7.,4.8,3.,4.8,0.,4.8
1979-07-19 15:07:21.340 ,5,0,0.,4.8,2.,4.8,3.,4.8,3.,4.8
1979-07-19 15:07:26.140 ,5,0,0.,4.8,1.,4.8,3.,4.8,2.,4.8
1979-07-19 15:07:30.940 ,5,0,0.,4.8,3.,4.8,3.,4.8,0.,4.8
1979-07-19 15:07:35.740 ,5,0,0.,4.8,4.,4.8,3.,4.8,1.,4.8
1979-07-19 15:07:40.540 ,5,0,0.,4.8,2.,4.8,1.,4.8,4.,4.8
1979-07-19 15:07:45.340 ,5,0,0.,4.8,8.,4.8,2.,4.8,1.,4.8
1979-07-19 15:07:50.140 ,5,0,0.,4.8,2.,4.8,0.,4.8,0.,4.8
1979-07-19 15:07:54.940 ,5,0,0.,4.8,7.,4.8,3.,4.8,3.,4.8
1979-07-19 15:07:59.740 ,4,0,0.,4.8,3.,4.8,5.,4.8,5.,4.8
1979-07-19 15:08:04.540 ,4,0,0.,4.8,4.,4.8,3.,4.8,4.,4.8
1979-07-19 15:08:09.340 ,4,0,0.,4.8,4.,4.8,3.,4.8,3.,4.8
1979-07-19 15:08:14.140 ,4,0,0.,4.8,3.,4.8,2.,4.8,3.,4.8
1979-07-19 15:08:18.940 ,4,0,0.,4.8,3.,4.8,0.,4.8,1.,4.8
1979-07-19 15:08:23.740 ,4,0,0.,4.8,8.,4.8,1.,4.8,2.,4.8
1979-07-19 15:08:28.540 ,4,0,0.,4.8,8.,4.8,3.,4.8,1.,4.8
1979-07-19 15:08:33.340 ,4,0,0.,4.8,5.,4.8,4.,4.8,3.,4.8
1979-07-19 15:08:38.140 ,4,0,0.,4.8,4.,4.8,2.,4.8,0.,4.8
1979-07-19 15:08:42.940 ,4,0,0.,4.8,2.,4.8,2.,4.8,4.,4.8
1979-07-19 15:08:47.740 ,3,0,0.,4.8,1.,4.8,6.,4.8,0.,4.8
1979-07-19 15:08:52.540 ,3,0,0.,4.8,2.,4.8,1.,4.8,1.,4.8
1979-07-19 15:08:57.340 ,3,0,0.,4.8,5.,4.8,2.,4.8,1.,4.8
1979-07-19 15:09:02.140 ,3,0,0.,4.8,4.,4.8,1.,4.8,2.,4.8
1979-07-19 15:09:06.940 ,3,0,0.,4.8,6.,4.8,2.,4.8,3.,4.8
1979-07-19 15:09:11.740 ,3,0,0.,4.8,5.,4.8,3.,4.8,5.,4.8
1979-07-19 15:09:16.540 ,3,0,0.,4.8,4.,4.8,2.,4.8,1.,4.8
1979-07-19 15:09:21.340 ,3,0,0.,4.8,4.,4.8,2.,4.8,2.,4.8
1979-07-19 15:09:26.140 ,3,0,0.,4.8,5.,4.8,4.,4.8,2.,4.8
1979-07-19 15:09:30.940 ,3,0,0.,4.8,2.,4.8,0.,4.8,2.,4.8
1979-07-19 15:09:35.740 ,2,0,0.,4.8,3.,4.8,0.,4.8,2.,4.8
1979-07-19 15:09:40.540 ,2,0,0.,4.8,1.,4.8,1.,4.8,1.,4.8
1979-07-19 15:09:45.340 ,2,0,0.,4.8,4.,4.8,4.,4.8,5.,4.8
1979-07-19 15:09:50.140 ,2,0,0.,4.8,5.,4.8,1.,4.8,2.,4.8
1979-07-19 15:09:54.940 ,2,0,0.,4.8,8.,4.8,3.,4.8,2.,4.8
1979-07-19 15:09:59.740 ,2,0,0.,4.8,6.,4.8,4.,4.8,3.,4.8
1979-07-19 15:10:04.540 ,2,0,0.,4.8,4.,4.8,6.,4.8,1.,4.8
1979-07-19 15:10:09.340 ,2,0,0.,4.8,7.,4.8,4.,4.8,3.,4.8
1979-07-19 15:10:14.140 ,2,0,0.,4.8,5.,4.8,2.,4.8,2.,4.8
1979-07-19 15:10:18.940 ,2,0,0.,4.8,3.,4.8,0.,4.8,0.,4.8
1979-07-19 15:10:23.740 ,1,0,0.,4.8,7.,4.8,0.,4.8,2.,4.8
1979-07-19 15:10:28.540 ,1,0,0.,4.8,8.,4.8,2.,4.8,2.,4.8
1979-07-19 15:10:33.340 ,1,0,0.,4.8,3.,4.8,3.,4.8,3.,4.8
1979-07-19 15:10:38.140 ,1,0,0.,4.8,6.,4.8,0.,4.8,2.,4.8
1979-07-19 15:10:42.940 ,1,0,1.,4.8,9.,4.8,1.,4.8,3.,4.8
1979-07-19 15:10:47.740 ,1,0,0.,4.8,8.,4.8,2.,4.8,0.,4.8
1979-07-19 15:10:52.540 ,1,0,0.,4.8,9.,4.8,1.,4.8,4.,4.8
1979-07-19 15:10:57.340 ,1,0,0.,4.8,4.,4.8,2.,4.8,0.,4.8
1979-07-19 15:11:02.140 ,1,0,0.,4.8,2.,4.8,3.,4.8,2.,4.8
1979-07-19 15:11:06.940 ,1,0,0.,4.8,4.,4.8,3.,4.8,4.,4.8
1979-07-19 15:11:11.740 ,0,0,0.,4.8,5.,4.8,2.,4.8,2.,4.8
1979-07-19 15:11:16.540 ,0,0,0.,4.8,10.,4.8,1.,4.8,2.,4.8
1979-07-19 15:11:21.340 ,0,0,0.,4.8,3.,4.8,2.,4.8,2.,4.8
1979-07-19 15:11:26.140 ,0,0,0.,4.8,5.,4.8,1.,4.8,2.,4.8
1979-07-19 15:11:30.940 ,0,0,0.,4.8,4.,4.8,1.,4.8,1.,4.8
1979-07-19 15:11:35.740 ,0,0,0.,4.8,2.,4.8,1.,4.8,2.,4.8
1979-07-19 15:11:40.540 ,0,0,0.,4.8,1.,4.8,3.,4.8,2.,4.8
1979-07-19 15:11:45.340 ,0,0,0.,4.8,3.,4.8,1.,4.8,3.,4.8
1979-07-19 15:11:50.140 ,0,0,0.,4.8,1.,4.8,3.,4.8,2.,4.8
1979-07-19 15:11:54.940 ,0,0,0.,4.8,2.,4.8,1.,4.8,1.,4.8
1979-07-19 15:11:59.740 ,0,0,0.,4.8,2.,4.8,3.,4.8,0.,4.8
1979-07-19 15:12:04.540 ,0,0,0.,4.8,5.,4.8,2.,4.8,2.,4.8
1979-07-19 15:12:09.340 ,0,0,0.,4.8,3.,4.8,1.,4.8,3.,4.8
1979-07-19 15:12:14.140 ,0,0,0.,4.8,6.,4.8,2.,4.8,2.,4.8
1979-07-19 15:12:18.940 ,0,0,0.,4.8,1.,4.8,6.,4.8,4.,4.8
1979-07-19 15:12:23.740 ,0,0,0.,4.8,1.,4.8,0.,4.8,3.,4.8
1979-07-19 15:12:28.540 ,0,0,0.,4.8,4.,4.8,1.,4.8,0.,4.8
1979-07-19 15:12:33.340 ,0,0,0.,4.8,5.,4.8,1.,4.8,2.,4.8
1979-07-19 15:12:38.140 ,0,0,0.,4.8,4.,4.8,6.,4.8,3.,4.8
1979-07-19 15:12:42.940 ,0,0,0.,4.8,2.,4.8,5.,4.8,2.,4.8
1979-07-19 15:12:47.740 ,1,0,0.,4.8,2.,4.8,1.,4.8,1.,4.8
1979-07-19 15:12:52.540 ,1,0,0.,4.8,3.,4.8,4.,4.8,1.,4.8
1979-07-19 15:12:57.340 ,1,0,0.,4.8,3.,4.8,4.,4.8,3.,4.8
1979-07-19 15:13:02.140 ,1,0,0.,4.8,8.,4.8,1.,4.8,2.,4.8
1979-07-19 15:13:06.940 ,1,0,0.,4.8,3.,4.8,2.,4.8,6.,4.8
1979-07-19 15:13:11.740 ,1,0,0.,4.8,3.,4.8,4.,4.8,4.,4.8
1979-07-19 15:13:16.540 ,1,0,0.,4.8,3.,4.8,3.,4.8,0.,4.8
1979-07-19 15:13:21.340 ,1,0,0.,4.8,3.,4.8,3.,4.8,2.,4.8
1979-07-19 15:13:26.140 ,1,0,0.,4.8,6.,4.8,0.,4.8,2.,4.8
1979-07-19 15:13:30.940 ,1,0,0.,4.8,3.,4.8,1.,4.8,0.,4.8
1979-07-19 15:13:35.740 ,2,0,0.,4.8,1.,4.8,2.,4.8,3.,4.8
1979-07-19 15:13:40.540 ,2,0,0.,4.8,2.,4.8,2.,4.8,4.,4.8
1979-07-19 15:13:45.340 ,2,0,0.,4.8,5.,4.8,1.,4.8,4.,4.8
1979-07-19 15:13:50.140 ,2,0,0.,4.8,3.,4.8,2.,4.8,7.,4.8
1979-07-19 15:13:54.940 ,2,0,0.,4.8,5.,4.8,6.,4.8,5.,4.8
1979-07-19 15:13:59.740 ,2,0,0.,4.8,7.,4.8,1.,4.8,0.,4.8
1979-07-19 15:14:04.540 ,2,0,0.,4.8,2.,4.8,7.,4.8,4.,4.8
1979-07-19 15:14:09.340 ,2,0,0.,4.8,7.,4.8,6.,4.8,0.,4.8
1979-07-19 15:14:14.140 ,2,0,0.,4.8,4.,4.8,5.,4.8,3.,4.8
1979-07-19 15:14:18.940 ,2,0,0.,4.8,8.,4.8,2.,4.8,5.,4.8
1979-07-19 15:14:23.740 ,3,0,0.,4.8,7.,4.8,3.,4.8,6.,4.8
1979-07-19 15:14:28.540 ,3,0,0.,4.8,5.,4.8,3.,4.8,2.,4.8
1979-07-19 15:14:33.340 ,3,0,0.,4.8,7.,4.8,9.,4.8,7.,4.8
1979-07-19 15:14:38.140 ,3,0,0.,4.8,4.,4.8,5.,4.8,2.,4.8
1979-07-19 15:14:42.940 ,3,0,0.,4.8,6.,4.8,6.,4.8,4.,4.8
1979-07-19 15:14:47.740 ,3,0,0.,4.8,6.,4.8,6.,4.8,5.,4.8
1979-07-19 15:14:52.540 ,3,0,0.,4.8,3.,4.8,1.,4.8,1.,4.8
1979-07-19 15:14:57.340 ,3,0,0.,4.8,4.,4.8,6.,4.8,4.,4.8
1979-07-19 15:15:02.140 ,3,0,0.,4.8,6.,4.8,3.,4.8,2.,4.8
1979-07-19 15:15:06.940 ,3,0,0.,4.8,6.,4.8,6.,4.8,3.,4.8
1979-07-19 15:15:11.740 ,4,0,0.,4.8,8.,4.8,1.,4.8,1.,4.8
1979-07-19 15:15:16.540 ,4,0,0.,4.8,2.,4.8,3.,4.8,0.,4.8
1979-07-19 15:15:21.340 ,4,0,0.,4.8,3.,4.8,3.,4.8,0.,4.8
1979-07-19 15:15:26.140 ,4,0,0.,4.8,4.,4.8,3.,4.8,1.,4.8
1979-07-19 15:15:30.940 ,4,0,0.,4.8,6.,4.8,2.,4.8,3.,4.8
1979-07-19 15:15:35.740 ,4,0,0.,4.8,6.,4.8,2.,4.8,2.,4.8
1979-07-19 15:15:40.540 ,4,0,0.,4.8,8.,4.8,3.,4.8,1.,4.8
1979-07-19 15:15:45.340 ,4,0,0.,4.8,3.,4.8,3.,4.8,0.,4.8
1979-07-19 15:15:50.140 ,4,0,0.,4.8,6.,4.8,3.,4.8,1.,4.8
1979-07-19 15:15:54.940 ,4,0,0.,4.8,8.,4.8,0.,4.8,1.,4.8
1979-07-19 15:15:59.740 ,5,0,0.,4.8,5.,4.8,0.,4.8,2.,4.8
1979-07-19 15:16:04.540 ,5,0,0.,4.8,7.,4.8,0.,4.8,0.,4.8
1979-07-19 15:16:09.340 ,5,0,0.,4.8,0.,4.8,4.,4.8,0.,4.8
1979-07-19 15:16:14.140 ,5,0,0.,4.8,1.,4.8,1.,4.8,2.,4.8
1979-07-19 15:16:18.940 ,5,0,0.,4.8,4.,4.8,3.,4.8,2.,4.8
1979-07-19 15:16:23.740 ,5,0,0.,4.8,5.,4.8,4.,4.8,1.,4.8
1979-07-19 15:16:28.540 ,5,0,0.,4.8,1.,4.8,2.,4.8,2.,4.8
1979-07-19 15:16:33.340 ,5,0,0.,4.8,2.,4.8,6.,4.8,0.,4.8
1979-07-19 15:16:38.140 ,5,0,0.,4.8,5.,4.8,2.,4.8,4.,4.8
1979-07-19 15:16:42.940 ,5,0,0.,4.8,3.,4.8,4.,4.8,2.,4.8
1979-07-19 15:16:47.740 ,6,0,0.,4.8,4.,4.8,2.,4.8,0.,4.8
1979-07-19 15:16:52.540 ,6,0,0.,4.8,4.,4.8,2.,4.8,1.,4.8
1979-07-19 15:16:57.340 ,6,0,0.,4.8,3.,4.8,3.,4.8,0.,4.8
1979-07-19 15:17:02.140 ,6,0,0.,4.8,5.,4.8,1.,4.8,3.,4.8
1979-07-19 15:17:06.940 ,6,0,0.,4.8,5.,4.8,3.,4.8,3.,4.8
1979-07-19 15:17:11.740 ,6,0,0.,4.8,4.,4.8,3.,4.8,5.,4.8
1979-07-19 15:17:16.540 ,6,0,0.,4.8,2.,4.8,4.,4.8,3.,4.8
1979-07-19 15:17:21.340 ,6,0,0.,4.8,4.,4.8,1.,4.8,3.,4.8
1979-07-19 15:17:26.140 ,6,0,0.,4.8,3.,4.8,7.,4.8,2.,4.8
1979-07-19 15:17:30.940 ,6,0,0.,4.8,4.,4.8,1.,4.8,0.,4.8
1979-07-19 15:17:35.740 ,7,0,0.,4.8,4.,4.8,3.,4.8,0.,4.8
1979-07-19 15:17:40.540 ,7,0,0.,4.8,5.,4.8,2.,4.8,1.,4.8
1979-07-19 15:17:45.340 ,7,0,0.,4.8,0.,4.8,0.,4.8,0.,4.8
1979-07-19 15:17:50.140 ,7,0,0.,4.8,2.,4.8,0.,4.8,0.,4.8
1979-07-19 15:17:54.940 ,7,0,0.,4.8,0.,4.8,0.,4.8,0.,4.8
1979-07-19 15:17:59.740 ,7,0,0.,4.8,1.,4.8,0.,4.8,0.,4.8
1979-07-19 15:18:04.540 ,7,0,0.,4.8,0.,4.8,0.,4.8,0.,4.8
1979-07-19 15:18:09.340 ,7,0,0.,4.8,0.,4.8,1.,4.8,0.,4.8
1979-07-19 15:18:14.140 ,7,0,0.,4.8,0.,4.8,0.,4.8,0.,4.8
1979-07-19 15:18:18.940 ,7,0,0.,4.8,0.,4.8,0.,4.8,0.,4.8
1979-07-19 15:18:23.740 ,7,0,0.,4.8,1.,4.8,0.,4.8,0.,4.8
1979-07-19 15:18:28.540 ,7,0,0.,4.8,1.,4.8,1.,4.8,0.,4.8
1979-07-19 15:18:33.340 ,7,0,0.,4.8,1.,4.8,0.,4.8,1.,4.8
1979-07-19 15:18:38.140 ,7,0,0.,4.8,1.,4.8,0.,4.8,0.,4.8
1979-07-19 15:18:42.940 ,7,0,0.,4.8,1.,4.8,0.,4.8,0.,4.8
1979-07-19 15:18:47.740 ,7,0,0.,4.8,0.,4.8,0.,4.8,0.,4.8
1979-07-19 15:18:52.540 ,7,0,0.,4.8,0.,4.8,0.,4.8,0.,4.8
1979-07-19 15:18:57.340 ,7,0,0.,4.8,0.,4.8,1.,4.8,1.,4.8
1979-07-19 15:19:02.140 ,7,0,0.,4.8,0.,4.8,0.,4.8,0.,4.8
1979-07-19 15:19:06.940 ,7,0,0.,4.8,0.,4.8,1.,4.8,0.,4.8
1979-07-19 15:19:11.740 ,6,0,0.,4.8,0.,4.8,0.,4.8,0.,4.8
1979-07-19 15:19:16.540 ,6,0,0.,4.8,0.,4.8,0.,4.8,0.,4.8
1979-07-19 15:19:21.340 ,6,0,0.,4.8,7.,4.8,6.,4.8,2.,4.8
1979-07-19 15:19:26.140 ,6,0,0.,4.8,3.,4.8,2.,4.8,2.,4.8
1979-07-19 15:19:30.940 ,6,0,0.,4.8,3.,4.8,3.,4.8,3.,4.8
1979-07-19 15:19:35.740 ,6,0,0.,4.8,4.,4.8,3.,4.8,1.,4.8
1979-07-19 15:19:40.540 ,6,0,0.,4.8,2.,4.8,3.,4.8,4.,4.8
1979-07-19 15:19:45.340 ,6,0,0.,4.8,5.,4.8,1.,4.8,2.,4.8
1979-07-19 15:19:50.140 ,6,0,0.,4.8,2.,4.8,4.,4.8,0.,4.8
1979-07-19 15:19:54.940 ,6,0,0.,4.8,7.,4.8,2.,4.8,3.,4.8
1979-07-19 15:19:59.740 ,5,0,0.,4.8,1.,4.8,0.,4.8,5.,4.8
1979-07-19 15:20:04.540 ,5,0,0.,4.8,3.,4.8,2.,4.8,0.,4.8
1979-07-19 15:20:09.340 ,5,0,0.,4.8,5.,4.8,2.,4.8,2.,4.8
1979-07-19 15:20:14.140 ,5,0,0.,4.8,7.,4.8,3.,4.8,2.,4.8
1979-07-19 15:20:18.940 ,5,0,0.,4.8,2.,4.8,6.,4.8,6.,4.8
1979-07-19 15:20:23.740 ,5,0,0.,4.8,5.,4.8,4.,4.8,2.,4.8
1979-07-19 15:20:28.540 ,5,0,0.,4.8,4.,4.8,3.,4.8,4.,4.8
1979-07-19 15:20:33.340 ,5,0,0.,4.8,3.,4.8,2.,4.8,2.,4.8
1979-07-19 15:20:38.140 ,5,0,0.,4.8,1.,4.8,4.,4.8,1.,4.8
1979-07-19 15:20:42.940 ,5,0,0.,4.8,1.,4.8,6.,4.8,2.,4.8
1979-07-19 15:20:47.740 ,4,0,0.,4.8,4.,4.8,1.,4.8,0.,4.8
1979-07-19 15:20:52.540 ,4,0,0.,4.8,2.,4.8,0.,4.8,3.,4.8
1979-07-19 15:20:57.340 ,4,0,0.,4.8,3.,4.8,3.,4.8,3.,4.8
1979-07-19 15:21:02.140 ,4,0,0.,4.8,4.,4.8,4.,4.8,1.,4.8
1979-07-19 15:21:06.940 ,4,0,0.,4.8,6.,4.8,3.,4.8,2.,4.8
1979-07-19 15:21:11.740 ,4,0,0.,4.8,4.,4.8,2.,4.8,4.,4.8
1979-07-19 15:21:16.540 ,4,0,0.,4.8,7.,4.8,4.,4.8,0.,4.8
1979-07-19 15:21:21.340 ,4,0,0.,4.8,2.,4.8,4.,4.8,1.,4.8
1979-07-19 15:21:26.140 ,4,0,0.,4.8,2.,4.8,3.,4.8,2.,4.8
1979-07-19 15:21:30.940 ,4,0,0.,4.8,5.,4.8,2.,4.8,0.,4.8
1979-07-19 15:21:35.740 ,3,0,0.,4.8,1.,4.8,0.,4.8,2.,4.8
1979-07-19 15:21:40.540 ,3,0,0.,4.8,6.,4.8,2.,4.8,3.,4.8
1979-07-19 15:21:45.340 ,3,0,0.,4.8,5.,4.8,0.,4.8,4.,4.8
1979-07-19 15:21:50.140 ,3,0,0.,4.8,6.,4.8,1.,4.8,1.,4.8
1979-07-19 15:21:54.940 ,3,0,0.,4.8,4.,4.8,2.,4.8,3.,4.8
1979-07-19 15:21:59.740 ,3,0,0.,4.8,7.,4.8,4.,4.8,2.,4.8
1979-07-19 15:22:04.540 ,3,0,0.,4.8,6.,4.8,2.,4.8,0.,4.8
1979-07-19 15:22:09.340 ,3,0,0.,4.8,5.,4.8,3.,4.8,1.,4.8
1979-07-19 15:22:14.140 ,3,0,0.,4.8,3.,4.8,1.,4.8,1.,4.8
1979-07-19 15:22:18.940 ,3,0,0.,4.8,2.,4.8,6.,4.8,2.,4.8
1979-07-19 15:22:23.740 ,2,0,0.,4.8,3.,4.8,4.,4.8,1.,4.8
1979-07-19 15:22:28.540 ,2,0,0.,4.8,4.,4.8,1.,4.8,5.,4.8
1979-07-19 15:22:33.340 ,2,0,0.,4.8,3.,4.8,5.,4.8,1.,4.8
1979-07-19 15:22:38.140 ,2,0,0.,4.8,2.,4.8,4.,4.8,0.,4.8
1979-07-19 15:22:42.940 ,2,0,0.,4.8,6.,4.8,5.,4.8,2.,4.8
1979-07-19 15:22:47.740 ,2,0,0.,4.8,5.,4.8,3.,4.8,2.,4.8
1979-07-19 15:22:52.540 ,2,0,0.,4.8,4.,4.8,2.,4.8,1.,4.8
1979-07-19 15:22:57.340 ,2,0,0.,4.8,7.,4.8,2.,4.8,1.,4.8
1979-07-19 15:23:02.140 ,2,0,0.,4.8,2.,4.8,1.,4.8,1.,4.8
1979-07-19 15:23:06.940 ,2,0,0.,4.8,6.,4.8,5.,4.8,2.,4.8
1979-07-19 15:23:11.740 ,1,0,0.,4.8,4.,4.8,2.,4.8,1.,4.8
1979-07-19 15:23:16.540 ,1,0,0.,4.8,8.,4.8,2.,4.8,3.,4.8
1979-07-19 15:23:21.340 ,1,0,0.,4.8,2.,4.8,1.,4.8,3.,4.8
1979-07-19 15:23:26.140 ,1,0,0.,4.8,8.,4.8,3.,4.8,5.,4.8
1979-07-19 15:23:30.940 ,1,0,0.,4.8,3.,4.8,7.,4.8,0.,4.8
1979-07-19 15:23:35.740 ,1,0,0.,4.8,5.,4.8,0.,4.8,1.,4.8
1979-07-19 15:23:40.540 ,1,0,0.,4.8,5.,4.8,3.,4.8,0.,4.8
1979-07-19 15:23:45.340 ,1,0,0.,4.8,5.,4.8,4.,4.8,3.,4.8
1979-07-19 15:23:50.140 ,1,0,0.,4.8,6.,4.8,2.,4.8,3.,4.8
1979-07-19 15:23:54.940 ,1,0,0.,4.8,1.,4.8,1.,4.8,2.,4.8
1979-07-19 15:23:59.740 ,0,0,0.,4.8,5.,4.8,5.,4.8,0.,4.8
1979-07-19 15:24:04.540 ,0,0,0.,4.8,4.,4.8,5.,4.8,2.,4.8
1979-07-19 15:24:09.340 ,0,0,0.,4.8,2.,4.8,4.,4.8,1.,4.8
1979-07-19 15:24:14.140 ,0,0,0.,4.8,2.,4.8,3.,4.8,1.,4.8
1979-07-19 15:24:18.940 ,0,0,0.,4.8,1.,4.8,2.,4.8,2.,4.8
1979-07-19 15:24:23.740 ,0,0,0.,4.8,1.,4.8,1.,4.8,2.,4.8
1979-07-19 15:24:28.540 ,0,0,0.,4.8,2.,4.8,1.,4.8,2.,4.8
1979-07-19 15:24:33.340 ,0,0,0.,4.8,3.,4.8,2.,4.8,3.,4.8
1979-07-19 15:24:38.140 ,0,0,0.,4.8,1.,4.8,0.,4.8,1.,4.8
1979-07-19 15:24:42.940 ,0,0,0.,4.8,2.,4.8,4.,4.8,0.,4.8
1979-07-19 15:24:47.740 ,0,0,0.,4.8,3.,4.8,0.,4.8,2.,4.8
1979-07-19 15:24:52.540 ,0,0,0.,4.8,5.,4.8,3.,4.8,5.,4.8
1979-07-19 15:24:57.340 ,0,0,0.,4.8,6.,4.8,5.,4.8,1.,4.8
1979-07-19 15:25:02.140 ,0,0,0.,4.8,3.,4.8,2.,4.8,3.,4.8
1979-07-19 15:25:06.940 ,0,0,0.,4.8,3.,4.8,1.,4.8,0.,4.8
1979-07-19 15:25:11.740 ,0,0,0.,4.8,2.,4.8,5.,4.8,4.,4.8
1979-07-19 15:25:16.540 ,0,0,0.,4.8,5.,4.8,1.,4.8,0.,4.8
1979-07-19 15:25:21.340 ,0,0,0.,4.8,6.,4.8,3.,4.8,0.,4.8
1979-07-19 15:25:26.140 ,0,0,0.,4.8,2.,4.8,2.,4.8,2.,4.8
1979-07-19 15:25:30.940 ,0,0,0.,4.8,3.,4.8,2.,4.8,1.,4.8
1979-07-19 15:25:35.740 ,1,0,0.,4.8,3.,4.8,2.,4.8,3.,4.8
1979-07-19 15:25:40.540 ,1,0,0.,4.8,4.,4.8,3.,4.8,1.,4.8
1979-07-19 15:25:45.340 ,1,0,0.,4.8,3.,4.8,0.,4.8,0.,4.8
1979-07-19 15:25:50.140 ,1,0,0.,4.8,3.,4.8,3.,4.8,2.,4.8
1979-07-19 15:25:54.940 ,1,0,0.,4.8,5.,4.8,4.,4.8,2.,4.8
1979-07-19 15:25:59.740 ,1,0,0.,4.8,3.,4.8,0.,4.8,0.,4.8
1979-07-19 15:26:04.540 ,1,0,0.,4.8,4.,4.8,5.,4.8,2.,4.8
1979-07-19 15:26:09.340 ,1,0,0.,4.8,5.,4.8,3.,4.8,1.,4.8
1979-07-19 15:26:14.140 ,1,0,0.,4.8,4.,4.8,4.,4.8,2.,4.8
1979-07-19 15:26:18.940 ,1,0,0.,4.8,3.,4.8,3.,4.8,5.,4.8
1979-07-19 15:26:23.740 ,2,0,0.,4.8,4.,4.8,2.,4.8,1.,4.8
1979-07-19 15:26:28.540 ,2,0,0.,4.8,0.,4.8,4.,4.8,3.,4.8
1979-07-19 15:26:33.340 ,2,0,0.,4.8,6.,4.8,0.,4.8,2.,4.8
1979-07-19 15:26:38.140 ,2,0,0.,4.8,5.,4.8,4.,4.8,1.,4.8
1979-07-19 15:26:42.940 ,2,0,0.,4.8,2.,4.8,7.,4.8,1.,4.8
1979-07-19 15:26:47.740 ,2,0,0.,4.8,7.,4.8,6.,4.8,4.,4.8
1979-07-19 15:26:52.540 ,2,0,0.,4.8,4.,4.8,3.,4.8,0.,4.8
1979-07-19 15:26:57.340 ,2,0,0.,4.8,6.,4.8,4.,4.8,1.,4.8
1979-07-19 15:27:02.140 ,2,0,0.,4.8,4.,4.8,3.,4.8,1.,4.8
1979-07-19 15:27:06.940 ,2,0,0.,4.8,3.,4.8,3.,4.8,5.,4.8
1979-07-19 15:27:11.740 ,3,0,0.,4.8,4.,4.8,3.,4.8,3.,4.8
1979-07-19 15:27:16.540 ,3,0,0.,4.8,0.,4.8,2.,4.8,2.,4.8
1979-07-19 15:27:21.340 ,3,0,0.,4.8,4.,4.8,1.,4.8,1.,4.8
1979-07-19 15:27:26.140 ,3,0,0.,4.8,6.,4.8,1.,4.8,5.,4.8
1979-07-19 15:27:30.940 ,3,0,0.,4.8,2.,4.8,1.,4.8,2.,4.8
1979-07-19 15:27:35.740 ,3,0,0.,4.8,4.,4.8,4.,4.8,4.,4.8
1979-07-19 15:27:40.540 ,3,0,0.,4.8,10.,4.8,4.,4.8,1.,4.8
1979-07-19 15:27:45.340 ,3,0,0.,4.8,2.,4.8,4.,4.8,1.,4.8
1979-07-19 15:27:50.140 ,3,0,0.,4.8,2.,4.8,3.,4.8,1.,4.8
1979-07-19 15:27:54.940 ,3,0,0.,4.8,5.,4.8,3.,4.8,2.,4.8
1979-07-19 15:27:59.740 ,4,0,0.,4.8,6.,4.8,1.,4.8,2.,4.8
1979-07-19 15:28:04.540 ,4,0,0.,4.8,9.,4.8,1.,4.8,6.,4.8
1979-07-19 15:28:09.340 ,4,0,0.,4.8,2.,4.8,4.,4.8,1.,4.8
1979-07-19 15:28:14.140 ,4,0,0.,4.8,4.,4.8,4.,4.8,3.,4.8
1979-07-19 15:28:18.940 ,4,0,0.,4.8,4.,4.8,1.,4.8,2.,4.8
1979-07-19 15:28:23.740 ,4,0,0.,4.8,1.,4.8,2.,4.8,0.,4.8
1979-07-19 15:28:28.540 ,4,0,0.,4.8,2.,4.8,0.,4.8,5.,4.8
1979-07-19 15:28:33.340 ,4,0,0.,4.8,4.,4.8,3.,4.8,0.,4.8
1979-07-19 15:28:38.140 ,4,0,0.,4.8,8.,4.8,3.,4.8,0.,4.8
1979-07-19 15:28:42.940 ,4,0,0.,4.8,5.,4.8,3.,4.8,1.,4.8
1979-07-19 15:28:47.740 ,5,0,0.,4.8,4.,4.8,0.,4.8,1.,4.8
1979-07-19 15:28:52.540 ,5,0,0.,4.8,0.,4.8,2.,4.8,1.,4.8
1979-07-19 15:28:57.340 ,5,0,0.,4.8,3.,4.8,2.,4.8,1.,4.8
1979-07-19 15:29:02.140 ,5,0,0.,4.8,4.,4.8,4.,4.8,1.,4.8
1979-07-19 15:29:06.940 ,5,0,0.,4.8,4.,4.8,2.,4.8,4.,4.8
1979-07-19 15:29:11.740 ,5,0,0.,4.8,4.,4.8,1.,4.8,1.,4.8
1979-07-19 15:29:16.540 ,5,0,0.,4.8,4.,4.8,4.,4.8,1.,4.8
1979-07-19 15:29:21.340 ,5,0,0.,4.8,1.,4.8,3.,4.8,4.,4.8
1979-07-19 15:29:26.140 ,5,0,0.,4.8,2.,4.8,1.,4.8,4.,4.8
1979-07-19 15:29:30.940 ,5,0,0.,4.8,2.,4.8,4.,4.8,0.,4.8
1979-07-19 15:29:35.740 ,6,0,0.,4.8,3.,4.8,3.,4.8,2.,4.8
1979-07-19 15:29:40.540 ,6,0,0.,4.8,4.,4.8,0.,4.8,3.,4.8
1979-07-19 15:29:45.340 ,6,0,0.,4.8,2.,4.8,4.,4.8,1.,4.8
1979-07-19 15:29:50.140 ,6,0,0.,4.8,3.,4.8,2.,4.8,1.,4.8
1979-07-19 15:29:54.940 ,6,0,0.,4.8,0.,4.8,1.,4.8,4.,4.8
1979-07-19 15:29:59.740 ,6,0,0.,4.8,2.,4.8,2.,4.8,3.,4.8
1979-07-19 15:30:04.540 ,6,0,0.,4.8,1.,4.8,1.,4.8,1.,4.8
1979-07-19 15:30:09.340 ,6,0,0.,4.8,3.,4.8,1.,4.8,1.,4.8
1979-07-19 15:30:14.140 ,6,0,0.,4.8,3.,4.8,0.,4.8,0.,4.8
1979-07-19 15:30:18.940 ,6,0,0.,4.8,4.,4.8,0.,4.8,2.,4.8
1979-07-19 15:30:23.740 ,7,0,0.,4.8,2.,4.8,1.,4.8,0.,4.8
1979-07-19 15:30:28.540 ,7,0,0.,4.8,5.,4.8,3.,4.8,2.,4.8
1979-07-19 15:30:33.340 ,7,0,0.,4.8,1.,4.8,1.,4.8,1.,4.8
1979-07-19 15:30:38.140 ,7,0,0.,4.8,0.,4.8,0.,4.8,0.,4.8
1979-07-19 15:30:42.940 ,7,0,0.,4.8,1.,4.8,0.,4.8,0.,4.8
1979-07-19 15:30:47.740 ,7,0,0.,4.8,0.,4.8,0.,4.8,0.,4.8
1979-07-19 15:30:52.540 ,7,0,0.,4.8,0.,4.8,0.,4.8,0.,4.8
1979-07-19 15:30:57.340 ,7,0,0.,4.8,0.,4.8,0.,4.8,0.,4.8
1979-07-19 15:31:02.140 ,7,0,0.,4.8,0.,4.8,0.,4.8,0.,4.8
1979-07-19 15:31:06.940 ,7,0,0.,4.8,1.,4.8,1.,4.8,0.,4.8
1979-07-19 15:31:11.740 ,3,1,0.,4.8,1.,4.8,0.,4.8,1.,4.8
1979-07-19 15:31:16.540 ,3,1,0.,4.8,2.,4.8,2.,4.8,3.,4.8
1979-07-19 15:31:21.340 ,3,1,0.,4.8,4.,4.8,2.,4.8,1.,4.8
1979-07-19 15:31:26.140 ,3,1,0.,4.8,3.,4.8,2.,4.8,0.,4.8
1979-07-19 15:31:30.940 ,3,1,0.,4.8,4.,4.8,0.,4.8,2.,4.8
1979-07-19 15:31:35.740 ,0,1,0.,4.8,4.,4.8,3.,4.8,2.,4.8
1979-07-19 15:31:40.540 ,0,1,0.,4.8,6.,4.8,2.,4.8,2.,4.8
1979-07-19 15:31:45.340 ,0,1,0.,4.8,5.,4.8,7.,4.8,2.,4.8
1979-07-19 15:31:50.140 ,0,1,0.,4.8,2.,4.8,4.,4.8,5.,4.8
1979-07-19 15:31:54.940 ,0,1,0.,4.8,2.,4.8,1.,4.8,2.,4.8
1979-07-19 15:31:59.740 ,4,1,0.,4.8,4.,4.8,3.,4.8,2.,4.8
1979-07-19 15:32:04.540 ,4,1,0.,4.8,1.,4.8,3.,4.8,2.,4.8
1979-07-19 15:32:09.340 ,4,1,0.,4.8,6.,4.8,4.,4.8,2.,4.8
1979-07-19 15:32:14.140 ,4,1,0.,4.8,3.,4.8,3.,4.8,6.,4.8
1979-07-19 15:32:18.940 ,4,1,0.,4.8,10.,4.8,3.,4.8,2.,4.8
1979-07-19 15:32:23.740 ,7,1,0.,4.8,4.,4.8,2.,4.8,0.,4.8
1979-07-19 15:32:28.540 ,7,1,0.,4.8,6.,4.8,4.,4.8,3.,4.8
1979-07-19 15:32:33.340 ,7,1,0.,4.8,4.,4.8,2.,4.8,0.,4.8
1979-07-19 15:32:38.140 ,7,1,0.,4.8,2.,4.8,0.,4.8,0.,4.8
1979-07-19 15:32:42.940 ,7,1,0.,4.8,0.,4.8,0.,4.8,0.,4.8
1979-07-19 15:32:47.740 ,3,1,0.,4.8,1.,4.8,2.,4.8,0.,4.8
1979-07-19 15:32:52.540 ,3,1,0.,4.8,7.,4.8,2.,4.8,1.,4.8
1979-07-19 15:32:57.340 ,3,1,0.,4.8,2.,4.8,1.,4.8,1.,4.8
1979-07-19 15:33:02.140 ,3,1,0.,4.8,3.,4.8,3.,4.8,1.,4.8
1979-07-19 15:33:06.940 ,3,1,0.,4.8,4.,4.8,3.,4.8,2.,4.8
1979-07-19 15:33:11.740 ,0,1,0.,4.8,4.,4.8,1.,4.8,4.,4.8
1979-07-19 15:33:16.540 ,0,1,0.,4.8,5.,4.8,2.,4.8,2.,4.8